Time,TemperatureF,DewpointF,PressureIn,WindDirection,WindDirectionDegrees,WindSpeedMPH,WindSpeedGustMPH,Humidity,HourlyPrecipIn,Conditions,Clouds,dailyrainin,SoftwareType,DateUTC
2013-04-30 00:00:00,70.1,56.9,29.66,South,180,9.0,17.0,63,0.00,,,0.00,VWS V14.00,2013-04-30 05:00:00,
2013-04-30 00:05:00,70.1,56.9,29.66,South,180,7.0,13.0,63,0.00,,,0.00,VWS V14.00,2013-04-30 05:05:00,
2013-04-30 00:10:00,69.9,56.8,29.66,South,180,7.0,13.0,63,0.00,,,0.00,VWS V14.00,2013-04-30 05:10:00,
2013-04-30 00:15:00,69.8,56.7,29.66,South,180,7.0,13.0,63,0.00,,,0.00,VWS V14.00,2013-04-30 05:15:00,
2013-04-30 00:20:00,69.6,56.5,29.66,South,180,7.0,13.0,63,0.00,,,0.00,VWS V14.00,2013-04-30 05:20:00,
2013-04-30 00:25:00,69.5,56.8,29.66,South,180,6.0,11.0,64,0.00,,,0.00,VWS V14.00,2013-04-30 05:25:00,
2013-04-30 00:30:00,69.4,56.7,29.66,South,180,7.0,11.0,64,0.00,,,0.00,VWS V14.00,2013-04-30 05:30:00,
2013-04-30 00:35:00,69.4,56.7,29.66,South,180,7.0,11.0,64,0.00,,,0.00,VWS V14.00,2013-04-30 05:35:00,
2013-04-30 00:40:00,69.4,56.3,29.66,South,180,8.0,12.0,63,0.00,,,0.00,VWS V14.00,2013-04-30 05:40:00,
2013-04-30 00:45:00,69.7,56.6,29.66,South,180,9.0,17.0,63,0.00,,,0.00,VWS V14.00,2013-04-30 05:45:00,
2013-04-30 00:50:00,69.5,56.4,29.66,South,180,8.0,16.0,63,0.00,,,0.00,VWS V14.00,2013-04-30 05:50:00,
2013-04-30 00:55:00,69.6,56.0,29.66,South,180,8.0,14.0,62,0.00,,,0.00,VWS V14.00,2013-04-30 05:55:00,
2013-04-30 01:00:00,69.6,56.0,29.66,South,180,8.0,13.0,62,0.00,,,0.00,VWS V14.00,2013-04-30 06:00:00,
2013-04-30 01:05:00,69.6,56.0,29.67,South,180,8.0,14.0,62,0.00,,,0.00,VWS V14.00,2013-04-30 06:05:00,
2013-04-30 01:10:00,69.5,55.9,29.67,South,180,8.0,12.0,62,0.00,,,0.00,VWS V14.00,2013-04-30 06:10:00,
2013-04-30 01:15:00,69.5,55.9,29.67,South,180,8.0,15.0,62,0.00,,,0.00,VWS V14.00,2013-04-30 06:15:00,
2013-04-30 01:20:00,69.4,55.8,29.67,South,180,8.0,12.0,62,0.00,,,0.00,VWS V14.00,2013-04-30 06:20:00,
2013-04-30 01:25:00,69.2,55.6,29.67,South,180,8.0,17.0,62,0.00,,,0.00,VWS V14.00,2013-04-30 06:25:00,
2013-04-30 01:30:00,69.0,55.9,29.67,South,180,8.0,15.0,63,0.00,,,0.00,VWS V14.00,2013-04-30 06:30:00,
2013-04-30 01:35:00,68.8,55.7,29.67,South,180,8.0,13.0,63,0.00,,,0.00,VWS V14.00,2013-04-30 06:35:00,
2013-04-30 01:40:00,68.8,55.7,29.67,South,180,7.0,14.0,63,0.00,,,0.00,VWS V14.00,2013-04-30 06:40:00,
2013-04-30 01:45:00,68.5,55.4,29.67,South,180,8.0,12.0,63,0.00,,,0.00,VWS V14.00,2013-04-30 06:45:00,
2013-04-30 01:50:00,68.5,55.4,29.67,South,180,8.0,15.0,63,0.00,,,0.00,VWS V14.00,2013-04-30 06:50:00,
2013-04-30 01:55:00,68.4,55.8,29.67,South,180,7.0,14.0,64,0.00,,,0.00,VWS V14.00,2013-04-30 06:55:00,
2013-04-30 02:00:00,68.3,55.7,29.68,South,180,7.0,12.0,64,0.00,,,0.00,VWS V14.00,2013-04-30 07:00:00,
2013-04-30 02:05:00,68.3,55.7,29.68,South,180,8.0,14.0,64,0.00,,,0.00,VWS V14.00,2013-04-30 07:05:00,
2013-04-30 02:10:00,68.4,55.3,29.68,South,180,8.0,13.0,63,0.00,,,0.00,VWS V14.00,2013-04-30 07:10:00,
2013-04-30 02:15:00,68.5,55.4,29.68,South,180,7.0,13.0,63,0.00,,,0.00,VWS V14.00,2013-04-30 07:15:00,
2013-04-30 02:20:00,68.4,55.3,29.68,South,180,7.0,14.0,63,0.00,,,0.00,VWS V14.00,2013-04-30 07:20:00,
2013-04-30 02:25:00,68.3,55.2,29.68,South,180,7.0,12.0,63,0.00,,,0.00,VWS V14.00,2013-04-30 07:25:00,
2013-04-30 02:30:00,68.2,55.6,29.68,South,180,7.0,14.0,64,0.00,,,0.00,VWS V14.00,2013-04-30 07:30:00,
2013-04-30 02:35:00,68.1,55.5,29.69,South,180,7.0,11.0,64,0.00,,,0.00,VWS V14.00,2013-04-30 07:35:00,
2013-04-30 02:40:00,67.9,55.3,29.68,South,180,7.0,11.0,64,0.00,,,0.00,VWS V14.00,2013-04-30 07:40:00,
2013-04-30 02:45:00,67.8,55.2,29.69,South,180,7.0,12.0,64,0.00,,,0.00,VWS V14.00,2013-04-30 07:45:00,
2013-04-30 02:50:00,67.6,55.0,29.69,South,180,6.0,9.0,64,0.00,,,0.00,VWS V14.00,2013-04-30 07:50:00,
2013-04-30 02:55:00,67.4,55.2,29.69,South,180,6.0,9.0,65,0.00,,,0.00,VWS V14.00,2013-04-30 07:55:00,
2013-04-30 03:00:00,67.2,55.0,29.69,South,180,7.0,12.0,65,0.00,,,0.00,VWS V14.00,2013-04-30 08:00:00,
2013-04-30 03:05:00,67.0,54.9,29.69,South,180,7.0,13.0,65,0.00,,,0.00,VWS V14.00,2013-04-30 08:05:00,
2013-04-30 03:10:00,66.9,55.2,29.69,South,180,7.0,11.0,66,0.00,,,0.00,VWS V14.00,2013-04-30 08:10:00,
2013-04-30 03:15:00,66.8,55.1,29.69,South,180,7.0,11.0,66,0.00,,,0.00,VWS V14.00,2013-04-30 08:15:00,
2013-04-30 03:20:00,66.6,54.9,29.69,South,180,7.0,11.0,66,0.00,,,0.00,VWS V14.00,2013-04-30 08:20:00,
2013-04-30 03:25:00,66.5,55.2,29.69,South,180,7.0,12.0,67,0.00,,,0.00,VWS V14.00,2013-04-30 08:25:00,
2013-04-30 03:30:00,66.3,55.0,29.69,South,180,8.0,16.0,67,0.00,,,0.00,VWS V14.00,2013-04-30 08:30:00,
2013-04-30 03:35:00,66.3,55.0,29.69,South,180,7.0,13.0,67,0.00,,,0.00,VWS V14.00,2013-04-30 08:35:00,
2013-04-30 03:40:00,66.3,55.0,29.70,South,180,7.0,13.0,67,0.00,,,0.00,VWS V14.00,2013-04-30 08:40:00,
2013-04-30 03:45:00,66.2,54.9,29.70,South,180,7.0,11.0,67,0.00,,,0.00,VWS V14.00,2013-04-30 08:45:00,
2013-04-30 03:50:00,66.2,54.9,29.70,South,180,8.0,13.0,67,0.00,,,0.00,VWS V14.00,2013-04-30 08:50:00,
2013-04-30 03:55:00,66.0,54.7,29.70,South,180,8.0,14.0,67,0.00,,,0.00,VWS V14.00,2013-04-30 08:55:00,
2013-04-30 04:00:00,66.0,55.2,29.70,South,180,8.0,14.0,68,0.00,,,0.00,VWS V14.00,2013-04-30 09:00:00,
2013-04-30 04:05:00,65.9,55.0,29.70,South,180,7.0,14.0,68,0.00,,,0.00,VWS V14.00,2013-04-30 09:05:00,
2013-04-30 04:10:00,65.7,54.9,29.70,South,180,8.0,13.0,68,0.00,,,0.00,VWS V14.00,2013-04-30 09:10:00,
2013-04-30 04:15:00,65.7,55.3,29.70,South,180,7.0,13.0,69,0.00,,,0.00,VWS V14.00,2013-04-30 09:15:00,
2013-04-30 04:20:00,65.6,55.2,29.70,South,180,7.0,13.0,69,0.00,,,0.00,VWS V14.00,2013-04-30 09:20:00,
2013-04-30 04:25:00,65.4,55.0,29.70,South,180,7.0,11.0,69,0.00,,,0.00,VWS V14.00,2013-04-30 09:25:00,
2013-04-30 04:30:00,65.4,55.0,29.70,South,180,8.0,16.0,69,0.00,,,0.00,VWS V14.00,2013-04-30 09:30:00,
2013-04-30 04:35:00,65.4,55.0,29.70,South,180,7.0,13.0,69,0.00,,,0.00,VWS V14.00,2013-04-30 09:35:00,
2013-04-30 04:40:00,65.3,55.3,29.70,South,180,8.0,15.0,70,0.00,,,0.00,VWS V14.00,2013-04-30 09:40:00,
2013-04-30 04:45:00,65.1,55.1,29.71,South,180,7.0,12.0,70,0.00,,,0.00,VWS V14.00,2013-04-30 09:45:00,
2013-04-30 04:50:00,65.0,55.4,29.71,South,180,6.0,14.0,71,0.00,,,0.00,VWS V14.00,2013-04-30 09:50:00,
2013-04-30 04:55:00,64.9,55.3,29.71,South,180,8.0,13.0,71,0.00,,,0.00,VWS V14.00,2013-04-30 09:55:00,
2013-04-30 05:00:00,64.9,55.3,29.71,South,180,7.0,11.0,71,0.00,,,0.00,VWS V14.00,2013-04-30 10:00:00,
2013-04-30 05:05:00,64.8,55.2,29.71,South,180,7.0,12.0,71,0.00,,,0.00,VWS V14.00,2013-04-30 10:05:00,
2013-04-30 05:10:00,64.7,55.1,29.71,SSW,202,6.0,12.0,71,0.00,,,0.00,VWS V14.00,2013-04-30 10:10:00,
2013-04-30 05:15:00,64.6,55.4,29.71,SSW,202,7.0,14.0,72,0.00,,,0.00,VWS V14.00,2013-04-30 10:15:00,
2013-04-30 05:20:00,64.5,55.3,29.72,SSW,202,7.0,14.0,72,0.00,,,0.00,VWS V14.00,2013-04-30 10:20:00,
2013-04-30 05:25:00,64.4,55.2,29.71,South,180,7.0,13.0,72,0.00,,,0.00,VWS V14.00,2013-04-30 10:25:00,
2013-04-30 05:30:00,64.4,55.2,29.71,SSW,202,6.0,12.0,72,0.00,,,0.00,VWS V14.00,2013-04-30 10:30:00,
2013-04-30 05:35:00,64.5,55.3,29.71,SSW,202,7.0,13.0,72,0.00,,,0.00,VWS V14.00,2013-04-30 10:35:00,
2013-04-30 05:40:00,64.5,55.3,29.72,SSW,202,6.0,15.0,72,0.00,,,0.00,VWS V14.00,2013-04-30 10:40:00,
2013-04-30 05:45:00,64.6,55.4,29.72,SSW,202,6.0,13.0,72,0.00,,,0.00,VWS V14.00,2013-04-30 10:45:00,
2013-04-30 05:50:00,64.6,55.4,29.71,SSW,202,8.0,16.0,72,0.00,,,0.00,VWS V14.00,2013-04-30 10:50:00,
2013-04-30 05:55:00,64.6,55.4,29.72,South,180,7.0,13.0,72,0.00,,,0.00,VWS V14.00,2013-04-30 10:55:00,
2013-04-30 06:00:00,64.5,55.3,29.72,South,180,7.0,15.0,72,0.00,,,0.00,VWS V14.00,2013-04-30 11:00:00,
2013-04-30 06:05:00,64.3,55.1,29.72,South,180,7.0,13.0,72,0.00,,,0.00,VWS V14.00,2013-04-30 11:05:00,
2013-04-30 06:10:00,64.1,55.3,29.72,South,180,7.0,12.0,73,0.00,,,0.00,VWS V14.00,2013-04-30 11:10:00,
2013-04-30 06:15:00,64.0,55.2,29.72,South,180,8.0,12.0,73,0.00,,,0.00,VWS V14.00,2013-04-30 11:15:00,
2013-04-30 06:20:00,64.0,55.2,29.72,South,180,7.0,13.0,73,0.00,,,0.00,VWS V14.00,2013-04-30 11:20:00,
2013-04-30 06:25:00,64.0,55.2,29.73,South,180,7.0,10.0,73,0.00,,,0.00,VWS V14.00,2013-04-30 11:25:00,
2013-04-30 06:30:00,63.8,55.4,29.73,South,180,6.0,12.0,74,0.00,,,0.00,VWS V14.00,2013-04-30 11:30:00,
2013-04-30 06:35:00,63.8,55.4,29.73,South,180,7.0,13.0,74,0.00,,,0.00,VWS V14.00,2013-04-30 11:35:00,
2013-04-30 06:40:00,63.9,55.5,29.73,South,180,7.0,12.0,74,0.00,,,0.00,VWS V14.00,2013-04-30 11:40:00,
2013-04-30 06:45:00,63.9,55.5,29.73,South,180,7.0,12.0,74,0.00,,,0.00,VWS V14.00,2013-04-30 11:45:00,
2013-04-30 06:50:00,64.0,55.6,29.74,SSW,202,6.0,13.0,74,0.00,,,0.00,VWS V14.00,2013-04-30 11:50:00,
2013-04-30 06:55:00,64.1,55.7,29.74,South,180,6.0,12.0,74,0.00,,,0.00,VWS V14.00,2013-04-30 11:55:00,
2013-04-30 07:00:00,64.3,55.5,29.74,South,180,7.0,13.0,73,0.00,,,0.00,VWS V14.00,2013-04-30 12:00:00,
2013-04-30 07:05:00,64.5,55.7,29.74,South,180,7.0,14.0,73,0.00,,,0.00,VWS V14.00,2013-04-30 12:05:00,
2013-04-30 07:10:00,64.7,55.9,29.75,South,180,6.0,14.0,73,0.00,,,0.00,VWS V14.00,2013-04-30 12:10:00,
2013-04-30 07:15:00,64.9,56.0,29.75,SSW,202,7.0,12.0,73,0.00,,,0.00,VWS V14.00,2013-04-30 12:15:00,
2013-04-30 07:20:00,65.0,55.8,29.75,South,180,7.0,13.0,72,0.00,,,0.00,VWS V14.00,2013-04-30 12:20:00,
2013-04-30 07:25:00,65.1,56.2,29.75,South,180,7.0,12.0,73,0.00,,,0.00,VWS V14.00,2013-04-30 12:25:00,
2013-04-30 07:30:00,65.4,56.2,29.75,South,180,8.0,15.0,72,0.00,,,0.00,VWS V14.00,2013-04-30 12:30:00,
2013-04-30 07:35:00,65.7,56.4,29.75,SSW,202,8.0,16.0,72,0.00,,,0.00,VWS V14.00,2013-04-30 12:35:00,
2013-04-30 07:40:00,65.9,56.2,29.75,SSW,202,7.0,14.0,71,0.00,,,0.00,VWS V14.00,2013-04-30 12:40:00,
2013-04-30 07:45:00,66.2,56.5,29.75,SSW,202,9.0,15.0,71,0.00,,,0.00,VWS V14.00,2013-04-30 12:45:00,
2013-04-30 07:50:00,66.2,56.5,29.75,SSW,202,9.0,15.0,71,0.00,,,0.00,VWS V14.00,2013-04-30 12:50:00,
2013-04-30 07:55:00,66.7,56.6,29.75,South,180,8.0,16.0,70,0.00,,,0.00,VWS V14.00,2013-04-30 12:55:00,
2013-04-30 08:00:00,67.1,57.0,29.75,South,180,8.0,16.0,70,0.00,,,0.00,VWS V14.00,2013-04-30 13:00:00,
2013-04-30 08:05:00,67.5,57.0,29.75,South,180,9.0,20.0,69,0.00,,,0.00,VWS V14.00,2013-04-30 13:05:00,
2013-04-30 08:10:00,67.9,56.5,29.75,SSW,202,12.0,25.0,67,0.00,,,0.00,VWS V14.00,2013-04-30 13:10:00,
2013-04-30 08:15:00,68.2,56.8,29.75,SSW,202,13.0,21.0,67,0.00,,,0.00,VWS V14.00,2013-04-30 13:15:00,
2013-04-30 08:20:00,68.3,56.9,29.75,SSW,202,11.0,18.0,67,0.00,,,0.00,VWS V14.00,2013-04-30 13:20:00,
2013-04-30 08:25:00,68.5,56.7,29.75,SSW,202,10.0,19.0,66,0.00,,,0.00,VWS V14.00,2013-04-30 13:25:00,
2013-04-30 08:30:00,68.7,56.9,29.75,SSW,202,7.0,17.0,66,0.00,,,0.00,VWS V14.00,2013-04-30 13:30:00,
2013-04-30 08:35:00,69.0,56.8,29.75,SSW,202,10.0,19.0,65,0.00,,,0.00,VWS V14.00,2013-04-30 13:35:00,
2013-04-30 08:40:00,69.3,57.0,29.75,SSW,202,9.0,18.0,65,0.00,,,0.00,VWS V14.00,2013-04-30 13:40:00,
2013-04-30 08:45:00,69.7,57.0,29.75,SSW,202,9.0,21.0,64,0.00,,,0.00,VWS V14.00,2013-04-30 13:45:00,
2013-04-30 08:50:00,69.9,57.2,29.75,SSW,202,7.0,17.0,64,0.00,,,0.00,VWS V14.00,2013-04-30 13:50:00,
2013-04-30 08:55:00,70.2,57.0,29.75,SW,225,9.0,20.0,63,0.00,,,0.00,VWS V14.00,2013-04-30 13:55:00,
2013-04-30 09:00:00,70.4,56.8,29.75,SSW,202,8.0,17.0,62,0.00,,,0.00,VWS V14.00,2013-04-30 14:00:00,
2013-04-30 09:05:00,71.0,57.3,29.75,SW,225,7.0,16.0,62,0.00,,,0.00,VWS V14.00,2013-04-30 14:05:00,
2013-04-30 09:10:00,71.4,57.3,29.75,SSW,202,8.0,20.0,61,0.00,,,0.00,VWS V14.00,2013-04-30 14:10:00,
2013-04-30 09:15:00,71.9,56.8,29.75,SSW,202,9.0,25.0,59,0.00,,,0.00,VWS V14.00,2013-04-30 14:15:00,
2013-04-30 09:20:00,72.2,56.6,29.75,SSW,202,11.0,21.0,58,0.00,,,0.00,VWS V14.00,2013-04-30 14:20:00,
2013-04-30 09:25:00,72.6,57.0,29.75,SW,225,12.0,25.0,58,0.00,,,0.00,VWS V14.00,2013-04-30 14:25:00,
2013-04-30 09:30:00,72.9,57.3,29.75,SW,225,12.0,21.0,58,0.00,,,0.00,VWS V14.00,2013-04-30 14:30:00,
2013-04-30 09:35:00,73.3,57.2,29.75,SSW,202,13.0,22.0,57,0.00,,,0.00,VWS V14.00,2013-04-30 14:35:00,
2013-04-30 09:40:00,73.6,57.0,29.75,SSW,202,12.0,21.0,56,0.00,,,0.00,VWS V14.00,2013-04-30 14:40:00,
2013-04-30 09:45:00,74.1,57.4,29.74,SSW,202,9.0,22.0,56,0.00,,,0.00,VWS V14.00,2013-04-30 14:45:00,
2013-04-30 09:50:00,74.3,56.6,29.74,SSW,202,11.0,18.0,54,0.00,,,0.00,VWS V14.00,2013-04-30 14:50:00,
2013-04-30 09:55:00,74.7,57.5,29.74,SSW,202,9.0,24.0,55,0.00,,,0.00,VWS V14.00,2013-04-30 14:55:00,
2013-04-30 10:00:00,75.1,56.3,29.74,SW,225,12.0,30.0,52,0.00,,,0.00,VWS V14.00,2013-04-30 15:00:00,
2013-04-30 10:05:00,75.3,56.5,29.75,SW,225,12.0,23.0,52,0.00,,,0.00,VWS V14.00,2013-04-30 15:05:00,
2013-04-30 10:10:00,75.8,58.0,29.75,SSW,202,6.0,16.0,54,0.00,,,0.00,VWS V14.00,2013-04-30 15:10:00,
2013-04-30 10:15:00,76.1,56.1,29.75,SSW,202,11.0,21.0,50,0.00,,,0.00,VWS V14.00,2013-04-30 15:15:00,
2013-04-30 10:20:00,76.2,57.3,29.75,SSW,202,9.0,18.0,52,0.00,,,0.00,VWS V14.00,2013-04-30 15:20:00,
2013-04-30 10:25:00,76.5,57.0,29.75,South,180,12.0,19.0,51,0.00,,,0.00,VWS V14.00,2013-04-30 15:25:00,
2013-04-30 10:30:00,76.8,56.8,29.74,South,180,9.0,17.0,50,0.00,,,0.00,VWS V14.00,2013-04-30 15:30:00,
2013-04-30 10:35:00,76.5,55.9,29.75,South,180,15.0,26.0,49,0.00,,,0.00,VWS V14.00,2013-04-30 15:35:00,
2013-04-30 10:40:00,76.8,56.8,29.75,SSW,202,8.0,20.0,50,0.00,,,0.00,VWS V14.00,2013-04-30 15:40:00,
2013-04-30 10:45:00,76.9,56.3,29.75,SSW,202,12.0,27.0,49,0.00,,,0.00,VWS V14.00,2013-04-30 15:45:00,
2013-04-30 10:50:00,77.3,55.5,29.75,SSW,202,13.0,23.0,47,0.00,,,0.00,VWS V14.00,2013-04-30 15:50:00,
2013-04-30 10:55:00,77.5,56.3,29.75,SSW,202,9.0,18.0,48,0.00,,,0.00,VWS V14.00,2013-04-30 15:55:00,
2013-04-30 11:00:00,77.7,55.3,29.75,SSW,202,12.0,23.0,46,0.00,,,0.00,VWS V14.00,2013-04-30 16:00:00,
2013-04-30 11:05:00,77.8,55.4,29.75,SSW,202,12.0,24.0,46,0.00,,,0.00,VWS V14.00,2013-04-30 16:05:00,
2013-04-30 11:10:00,78.3,57.0,29.75,South,180,9.0,22.0,48,0.00,,,0.00,VWS V14.00,2013-04-30 16:10:00,
2013-04-30 11:15:00,78.3,55.8,29.75,SSW,202,11.0,22.0,46,0.00,,,0.00,VWS V14.00,2013-04-30 16:15:00,
2013-04-30 11:20:00,78.4,55.3,29.75,SSW,202,12.0,22.0,45,0.00,,,0.00,VWS V14.00,2013-04-30 16:20:00,
2013-04-30 11:25:00,78.5,55.4,29.75,SSW,202,12.0,22.0,45,0.00,,,0.00,VWS V14.00,2013-04-30 16:25:00,
2013-04-30 11:30:00,79.0,54.0,29.75,South,180,12.0,21.0,42,0.00,,,0.00,VWS V14.00,2013-04-30 16:30:00,
2013-04-30 11:35:00,79.0,55.9,29.75,SSW,202,9.0,20.0,45,0.00,,,0.00,VWS V14.00,2013-04-30 16:35:00,
2013-04-30 11:40:00,79.3,56.1,29.75,South,180,13.0,22.0,45,0.00,,,0.00,VWS V14.00,2013-04-30 16:40:00,
2013-04-30 11:45:00,78.7,55.0,29.75,South,180,15.0,25.0,44,0.00,,,0.00,VWS V14.00,2013-04-30 16:45:00,
2013-04-30 11:50:00,78.7,55.0,29.75,South,180,13.0,21.0,44,0.00,,,0.00,VWS V14.00,2013-04-30 16:50:00,
2013-04-30 11:55:00,79.0,54.6,29.75,South,180,13.0,22.0,43,0.00,,,0.00,VWS V14.00,2013-04-30 16:55:00,
2013-04-30 12:00:00,79.7,56.5,29.75,South,180,8.0,17.0,45,0.00,,,0.00,VWS V14.00,2013-04-30 17:00:00,
2013-04-30 12:05:00,79.7,52.6,29.75,SSW,202,16.0,28.0,39,0.00,,,0.00,VWS V14.00,2013-04-30 17:05:00,
2013-04-30 12:10:00,79.7,54.6,29.74,SSW,202,10.0,22.0,42,0.00,,,0.00,VWS V14.00,2013-04-30 17:10:00,
2013-04-30 12:15:00,80.1,56.2,29.74,South,180,9.0,16.0,44,0.00,,,0.00,VWS V14.00,2013-04-30 17:15:00,
2013-04-30 12:20:00,80.0,55.5,29.74,SSW,202,11.0,21.0,43,0.00,,,0.00,VWS V14.00,2013-04-30 17:20:00,
2013-04-30 12:25:00,80.0,53.5,29.74,South,180,13.0,27.0,40,0.00,,,0.00,VWS V14.00,2013-04-30 17:25:00,
2013-04-30 12:30:00,80.0,54.2,29.74,South,180,11.0,21.0,41,0.00,,,0.00,VWS V14.00,2013-04-30 17:30:00,
2013-04-30 12:35:00,80.0,52.8,29.74,South,180,13.0,22.0,39,0.00,,,0.00,VWS V14.00,2013-04-30 17:35:00,
2013-04-30 12:40:00,80.0,52.8,29.74,South,180,14.0,22.0,39,0.00,,,0.00,VWS V14.00,2013-04-30 17:40:00,
2013-04-30 12:45:00,80.5,54.0,29.73,South,180,10.0,18.0,40,0.00,,,0.00,VWS V14.00,2013-04-30 17:45:00,
2013-04-30 12:50:00,81.1,53.8,29.73,South,180,9.0,20.0,39,0.00,,,0.00,VWS V14.00,2013-04-30 17:50:00,
2013-04-30 12:55:00,80.9,52.2,29.73,South,180,14.0,23.0,37,0.00,,,0.00,VWS V14.00,2013-04-30 17:55:00,
2013-04-30 13:00:00,80.8,52.1,29.73,South,180,14.0,26.0,37,0.00,,,0.00,VWS V14.00,2013-04-30 18:00:00,
2013-04-30 13:05:00,81.4,54.8,29.73,South,180,8.0,22.0,40,0.00,,,0.00,VWS V14.00,2013-04-30 18:05:00,
2013-04-30 13:10:00,81.3,55.4,29.72,South,180,13.0,22.0,41,0.00,,,0.00,VWS V14.00,2013-04-30 18:10:00,
2013-04-30 13:15:00,81.4,52.7,29.73,South,180,12.0,20.0,37,0.00,,,0.00,VWS V14.00,2013-04-30 18:15:00,
2013-04-30 13:20:00,81.1,53.1,29.73,South,180,12.0,19.0,38,0.00,,,0.00,VWS V14.00,2013-04-30 18:20:00,
2013-04-30 13:25:00,81.3,53.3,29.73,SSE,158,12.0,22.0,38,0.00,,,0.00,VWS V14.00,2013-04-30 18:25:00,
2013-04-30 13:30:00,81.9,52.3,29.73,South,180,10.0,21.0,36,0.00,,,0.00,VWS V14.00,2013-04-30 18:30:00,
2013-04-30 13:35:00,81.9,52.3,29.73,South,180,13.0,26.0,36,0.00,,,0.00,VWS V14.00,2013-04-30 18:35:00,
2013-04-30 13:40:00,81.9,54.5,29.73,South,180,11.0,21.0,39,0.00,,,0.00,VWS V14.00,2013-04-30 18:40:00,
2013-04-30 13:45:00,82.0,51.7,29.73,South,180,12.0,26.0,35,0.00,,,0.00,VWS V14.00,2013-04-30 18:45:00,
2013-04-30 13:50:00,81.5,51.2,29.73,South,180,15.0,25.0,35,0.00,,,0.00,VWS V14.00,2013-04-30 18:50:00,
2013-04-30 13:55:00,81.4,52.7,29.73,South,180,14.0,22.0,37,0.00,,,0.00,VWS V14.00,2013-04-30 18:55:00,
2013-04-30 14:00:00,81.9,51.6,29.73,South,180,12.0,21.0,35,0.00,,,0.00,VWS V14.00,2013-04-30 19:00:00,
2013-04-30 14:05:00,82.0,51.7,29.73,South,180,12.0,21.0,35,0.00,,,0.00,VWS V14.00,2013-04-30 19:05:00,
2013-04-30 14:10:00,82.1,54.0,29.73,South,180,10.0,20.0,38,0.00,,,0.00,VWS V14.00,2013-04-30 19:10:00,
2013-04-30 14:15:00,82.2,52.6,29.73,South,180,10.0,21.0,36,0.00,,,0.00,VWS V14.00,2013-04-30 19:15:00,
2013-04-30 14:20:00,82.3,51.9,29.73,South,180,13.0,21.0,35,0.00,,,0.00,VWS V14.00,2013-04-30 19:20:00,
2013-04-30 14:25:00,82.2,51.1,29.74,South,180,14.0,25.0,34,0.00,,,0.00,VWS V14.00,2013-04-30 19:25:00,
2013-04-30 14:30:00,82.1,51.0,29.74,South,180,13.0,21.0,34,0.00,,,0.00,VWS V14.00,2013-04-30 19:30:00,
2013-04-30 14:35:00,81.9,49.2,29.74,South,180,14.0,21.0,32,0.00,,,0.00,VWS V14.00,2013-04-30 19:35:00,
2013-04-30 14:40:00,82.1,51.0,29.74,South,180,11.0,22.0,34,0.00,,,0.00,VWS V14.00,2013-04-30 19:40:00,
2013-04-30 14:45:00,82.2,50.3,29.74,SSE,158,12.0,19.0,33,0.00,,,0.00,VWS V14.00,2013-04-30 19:45:00,
2013-04-30 14:50:00,82.2,50.3,29.74,South,180,14.0,21.0,33,0.00,,,0.00,VWS V14.00,2013-04-30 19:50:00,
2013-04-30 14:55:00,82.6,48.9,29.74,South,180,11.0,21.0,31,0.00,,,0.00,VWS V14.00,2013-04-30 19:55:00,
2013-04-30 15:00:00,82.7,49.0,29.74,South,180,11.0,20.0,31,0.00,,,0.00,VWS V14.00,2013-04-30 20:00:00,
2013-04-30 15:05:00,82.5,49.7,29.74,South,180,13.0,21.0,32,0.00,,,0.00,VWS V14.00,2013-04-30 20:05:00,
2013-04-30 15:10:00,82.7,52.3,29.74,South,180,10.0,24.0,35,0.00,,,0.00,VWS V14.00,2013-04-30 20:10:00,
2013-04-30 15:15:00,82.5,49.7,29.73,South,180,14.0,22.0,32,0.00,,,0.00,VWS V14.00,2013-04-30 20:15:00,
2013-04-30 15:20:00,82.4,50.4,29.73,South,180,11.0,18.0,33,0.00,,,0.00,VWS V14.00,2013-04-30 20:20:00,
2013-04-30 15:25:00,82.5,49.7,29.73,South,180,13.0,22.0,32,0.00,,,0.00,VWS V14.00,2013-04-30 20:25:00,
2013-04-30 15:30:00,82.5,51.3,29.72,SSE,158,13.0,21.0,34,0.00,,,0.00,VWS V14.00,2013-04-30 20:30:00,
2013-04-30 15:35:00,82.5,52.1,29.72,SSE,158,13.0,24.0,35,0.00,,,0.00,VWS V14.00,2013-04-30 20:35:00,
2013-04-30 15:40:00,82.4,52.0,29.72,South,180,11.0,22.0,35,0.00,,,0.00,VWS V14.00,2013-04-30 20:40:00,
2013-04-30 15:45:00,82.5,50.5,29.73,South,180,10.0,21.0,33,0.00,,,0.00,VWS V14.00,2013-04-30 20:45:00,
2013-04-30 15:50:00,82.6,50.6,29.73,South,180,10.0,17.0,33,0.00,,,0.00,VWS V14.00,2013-04-30 20:50:00,
2013-04-30 15:55:00,82.7,50.7,29.73,South,180,10.0,21.0,33,0.00,,,0.00,VWS V14.00,2013-04-30 20:55:00,
2013-04-30 16:00:00,82.8,50.8,29.73,South,180,9.0,16.0,33,0.00,,,0.00,VWS V14.00,2013-04-30 21:00:00,
2013-04-30 16:05:00,82.6,49.8,29.73,South,180,10.0,18.0,32,0.00,,,0.00,VWS V14.00,2013-04-30 21:05:00,
2013-04-30 16:10:00,82.7,49.0,29.73,South,180,10.0,19.0,31,0.00,,,0.00,VWS V14.00,2013-04-30 21:10:00,
2013-04-30 16:15:00,82.5,50.5,29.73,South,180,9.0,19.0,33,0.00,,,0.00,VWS V14.00,2013-04-30 21:15:00,
2013-04-30 16:20:00,82.7,49.9,29.73,South,180,7.0,16.0,32,0.00,,,0.00,VWS V14.00,2013-04-30 21:20:00,
2013-04-30 16:25:00,82.7,52.3,29.73,South,180,8.0,17.0,35,0.00,,,0.00,VWS V14.00,2013-04-30 21:25:00,
2013-04-30 16:30:00,82.3,49.5,29.74,South,180,13.0,23.0,32,0.00,,,0.00,VWS V14.00,2013-04-30 21:30:00,
2013-04-30 16:35:00,82.2,49.4,29.73,South,180,9.0,16.0,32,0.00,,,0.00,VWS V14.00,2013-04-30 21:35:00,
2013-04-30 16:40:00,82.3,49.5,29.73,South,180,9.0,15.0,32,0.00,,,0.00,VWS V14.00,2013-04-30 21:40:00,
2013-04-30 16:45:00,82.2,51.8,29.73,South,180,6.0,14.0,35,0.00,,,0.00,VWS V14.00,2013-04-30 21:45:00,
2013-04-30 16:50:00,82.4,51.2,29.74,South,180,7.0,13.0,34,0.00,,,0.00,VWS V14.00,2013-04-30 21:50:00,
2013-04-30 16:55:00,82.1,52.5,29.74,South,180,7.0,14.0,36,0.00,,,0.00,VWS V14.00,2013-04-30 21:55:00,
2013-04-30 17:00:00,82.0,51.7,29.74,South,180,9.0,20.0,35,0.00,,,0.00,VWS V14.00,2013-04-30 22:00:00,
2013-04-30 17:05:00,81.8,51.5,29.74,South,180,10.0,20.0,35,0.00,,,0.00,VWS V14.00,2013-04-30 22:05:00,
2013-04-30 17:10:00,81.8,53.0,29.74,South,180,5.0,11.0,37,0.00,,,0.00,VWS V14.00,2013-04-30 22:10:00,
2013-04-30 17:15:00,81.8,52.3,29.74,South,180,7.0,15.0,36,0.00,,,0.00,VWS V14.00,2013-04-30 22:15:00,
2013-04-30 17:20:00,81.6,50.5,29.74,South,180,8.0,14.0,34,0.00,,,0.00,VWS V14.00,2013-04-30 22:20:00,
2013-04-30 17:25:00,81.5,51.2,29.74,South,180,7.0,11.0,35,0.00,,,0.00,VWS V14.00,2013-04-30 22:25:00,
2013-04-30 17:30:00,81.3,51.1,29.74,South,180,8.0,16.0,35,0.00,,,0.00,VWS V14.00,2013-04-30 22:30:00,
2013-04-30 17:35:00,81.3,51.8,29.74,SSE,158,9.0,17.0,36,0.00,,,0.00,VWS V14.00,2013-04-30 22:35:00,
2013-04-30 17:40:00,81.3,52.6,29.74,SSE,158,7.0,21.0,37,0.00,,,0.00,VWS V14.00,2013-04-30 22:40:00,
2013-04-30 17:45:00,81.3,51.8,29.74,SSE,158,7.0,13.0,36,0.00,,,0.00,VWS V14.00,2013-04-30 22:45:00,
2013-04-30 17:50:00,81.0,52.3,29.74,South,180,7.0,14.0,37,0.00,,,0.00,VWS V14.00,2013-04-30 22:50:00,
2013-04-30 17:55:00,80.7,51.3,29.74,SSE,158,9.0,15.0,36,0.00,,,0.00,VWS V14.00,2013-04-30 22:55:00,
2013-04-30 18:00:00,80.5,51.1,29.74,SSE,158,7.0,16.0,36,0.00,,,0.00,VWS V14.00,2013-04-30 23:00:00,
2013-04-30 18:05:00,80.2,50.8,29.74,SSE,158,8.0,15.0,36,0.00,,,0.00,VWS V14.00,2013-04-30 23:05:00,
2013-04-30 18:10:00,80.0,49.9,29.74,SSE,158,8.0,15.0,35,0.00,,,0.00,VWS V14.00,2013-04-30 23:10:00,
2013-04-30 18:15:00,79.8,49.7,29.74,SSE,158,7.0,14.0,35,0.00,,,0.00,VWS V14.00,2013-04-30 23:15:00,
2013-04-30 18:20:00,79.5,49.5,29.74,South,180,9.0,14.0,35,0.00,,,0.00,VWS V14.00,2013-04-30 23:20:00,
2013-04-30 18:25:00,79.4,48.6,29.74,SSE,158,8.0,14.0,34,0.00,,,0.00,VWS V14.00,2013-04-30 23:25:00,
2013-04-30 18:30:00,79.3,49.3,29.74,SSE,158,6.0,11.0,35,0.00,,,0.00,VWS V14.00,2013-04-30 23:30:00,
2013-04-30 18:35:00,79.0,49.8,29.74,South,180,6.0,11.0,36,0.00,,,0.00,VWS V14.00,2013-04-30 23:35:00,
2013-04-30 18:40:00,78.6,50.2,29.73,South,180,5.0,11.0,37,0.00,,,0.00,VWS V14.00,2013-04-30 23:40:00,
2013-04-30 18:45:00,78.4,50.0,29.74,South,180,5.0,11.0,37,0.00,,,0.00,VWS V14.00,2013-04-30 23:45:00,
2013-04-30 18:50:00,78.3,49.9,29.73,South,180,6.0,11.0,37,0.00,,,0.00,VWS V14.00,2013-04-30 23:50:00,
2013-04-30 18:55:00,78.2,50.5,29.73,South,180,5.0,10.0,38,0.00,,,0.00,VWS V14.00,2013-04-30 23:55:00,
2013-04-30 19:00:00,78.0,51.1,29.73,SSE,158,4.0,11.0,39,0.00,,,0.00,VWS V14.00,2013-05-01 00:00:00,
2013-04-30 19:05:00,77.8,51.6,29.74,SSE,158,4.0,8.0,40,0.00,,,0.00,VWS V14.00,2013-05-01 00:05:00,
2013-04-30 19:10:00,77.6,50.7,29.74,South,180,5.0,10.0,39,0.00,,,0.00,VWS V14.00,2013-05-01 00:10:00,
2013-04-30 19:15:00,77.5,51.3,29.74,South,180,4.0,10.0,40,0.00,,,0.00,VWS V14.00,2013-05-01 00:15:00,
2013-04-30 19:20:00,77.3,51.8,29.74,SSE,158,5.0,9.0,41,0.00,,,0.00,VWS V14.00,2013-05-01 00:20:00,
2013-04-30 19:25:00,77.1,50.9,29.74,SSE,158,4.0,7.0,40,0.00,,,0.00,VWS V14.00,2013-05-01 00:25:00,
2013-04-30 19:30:00,76.9,51.4,29.74,SSE,158,4.0,7.0,41,0.00,,,0.00,VWS V14.00,2013-05-01 00:30:00,
2013-04-30 19:35:00,76.6,51.2,29.74,SSE,158,4.0,7.0,41,0.00,,,0.00,VWS V14.00,2013-05-01 00:35:00,
2013-04-30 19:40:00,76.2,50.8,29.74,South,180,4.0,8.0,41,0.00,,,0.00,VWS V14.00,2013-05-01 00:40:00,
2013-04-30 19:45:00,76.0,50.6,29.75,SSE,158,2.0,5.0,41,0.00,,,0.00,VWS V14.00,2013-05-01 00:45:00,
2013-04-30 19:50:00,75.7,51.0,29.75,SSE,158,2.0,5.0,42,0.00,,,0.00,VWS V14.00,2013-05-01 00:50:00,
2013-04-30 19:55:00,75.2,51.2,29.74,SSE,158,2.0,4.0,43,0.00,,,0.00,VWS V14.00,2013-05-01 00:55:00,
2013-04-30 20:00:00,74.7,50.7,29.75,SE,135,2.0,5.0,43,0.00,,,0.00,VWS V14.00,2013-05-01 01:00:00,
2013-04-30 20:05:00,74.2,50.9,29.75,SSE,158,2.0,5.0,44,0.00,,,0.00,VWS V14.00,2013-05-01 01:05:00,
2013-04-30 20:10:00,73.8,50.5,29.75,SE,135,2.0,5.0,44,0.00,,,0.00,VWS V14.00,2013-05-01 01:10:00,
2013-04-30 20:15:00,73.4,50.8,29.75,SE,135,1.0,5.0,45,0.00,,,0.00,VWS V14.00,2013-05-01 01:15:00,
2013-04-30 20:20:00,72.9,50.9,29.75,SE,135,2.0,5.0,46,0.00,,,0.00,VWS V14.00,2013-05-01 01:20:00,
2013-04-30 20:25:00,72.6,50.7,29.75,SE,135,3.0,5.0,46,0.00,,,0.00,VWS V14.00,2013-05-01 01:25:00,
2013-04-30 20:30:00,72.4,50.5,29.75,SSE,158,2.0,4.0,46,0.00,,,0.00,VWS V14.00,2013-05-01 01:30:00,
2013-04-30 20:35:00,72.4,50.5,29.75,SE,135,2.0,4.0,46,0.00,,,0.00,VWS V14.00,2013-05-01 01:35:00,
2013-04-30 20:40:00,72.2,50.9,29.75,SSE,158,2.0,4.0,47,0.00,,,0.00,VWS V14.00,2013-05-01 01:40:00,
2013-04-30 20:45:00,71.9,51.2,29.75,SE,135,3.0,5.0,48,0.00,,,0.00,VWS V14.00,2013-05-01 01:45:00,
2013-04-30 20:50:00,71.6,50.9,29.76,SE,135,3.0,5.0,48,0.00,,,0.00,VWS V14.00,2013-05-01 01:50:00,
2013-04-30 20:55:00,71.5,50.8,29.76,SE,135,3.0,5.0,48,0.00,,,0.00,VWS V14.00,2013-05-01 01:55:00,
2013-04-30 21:00:00,71.3,50.6,29.76,SE,135,3.0,5.0,48,0.00,,,0.00,VWS V14.00,2013-05-01 02:00:00,
2013-04-30 21:05:00,71.1,50.4,29.76,SE,135,3.0,5.0,48,0.00,,,0.00,VWS V14.00,2013-05-01 02:05:00,
2013-04-30 21:10:00,70.9,50.8,29.77,SE,135,3.0,7.0,49,0.00,,,0.00,VWS V14.00,2013-05-01 02:10:00,
2013-04-30 21:15:00,70.7,50.6,29.77,SE,135,4.0,7.0,49,0.00,,,0.00,VWS V14.00,2013-05-01 02:15:00,
2013-04-30 21:20:00,70.8,50.7,29.77,SSE,158,4.0,6.0,49,0.00,,,0.00,VWS V14.00,2013-05-01 02:20:00,
2013-04-30 21:25:00,70.8,50.7,29.77,SE,135,4.0,7.0,49,0.00,,,0.00,VWS V14.00,2013-05-01 02:25:00,
2013-04-30 21:30:00,71.0,50.3,29.78,SE,135,4.0,6.0,48,0.00,,,0.00,VWS V14.00,2013-05-01 02:30:00,
2013-04-30 21:35:00,71.0,50.3,29.78,SE,135,3.0,5.0,48,0.00,,,0.00,VWS V14.00,2013-05-01 02:35:00,
2013-04-30 21:40:00,70.8,50.2,29.78,SSE,158,3.0,5.0,48,0.00,,,0.00,VWS V14.00,2013-05-01 02:40:00,
2013-04-30 21:45:00,70.6,50.5,29.78,SSE,158,3.0,5.0,49,0.00,,,0.00,VWS V14.00,2013-05-01 02:45:00,
2013-04-30 21:50:00,70.3,50.3,29.78,SE,135,3.0,5.0,49,0.00,,,0.00,VWS V14.00,2013-05-01 02:50:00,
2013-04-30 21:55:00,70.0,50.5,29.78,SE,135,3.0,5.0,50,0.00,,,0.00,VWS V14.00,2013-05-01 02:55:00,
2013-04-30 22:00:00,69.5,50.6,29.79,SE,135,4.0,6.0,51,0.00,,,0.00,VWS V14.00,2013-05-01 03:00:00,
2013-04-30 22:05:00,69.0,50.1,29.79,SE,135,3.0,6.0,51,0.00,,,0.00,VWS V14.00,2013-05-01 03:05:00,
2013-04-30 22:10:00,68.8,50.5,29.79,SE,135,3.0,6.0,52,0.00,,,0.00,VWS V14.00,2013-05-01 03:10:00,
2013-04-30 22:15:00,68.5,49.7,29.79,SE,135,3.0,7.0,51,0.00,,,0.00,VWS V14.00,2013-05-01 03:15:00,
2013-04-30 22:20:00,68.5,49.7,29.80,SE,135,3.0,6.0,51,0.00,,,0.00,VWS V14.00,2013-05-01 03:20:00,
2013-04-30 22:25:00,68.5,50.2,29.80,SE,135,4.0,7.0,52,0.00,,,0.00,VWS V14.00,2013-05-01 03:25:00,
2013-04-30 22:30:00,68.3,49.5,29.80,SE,135,3.0,6.0,51,0.00,,,0.00,VWS V14.00,2013-05-01 03:30:00,
2013-04-30 22:35:00,68.2,49.4,29.80,SE,135,4.0,9.0,51,0.00,,,0.00,VWS V14.00,2013-05-01 03:35:00,
2013-04-30 22:40:00,68.0,49.2,29.80,SE,135,4.0,9.0,51,0.00,,,0.00,VWS V14.00,2013-05-01 03:40:00,
2013-04-30 22:45:00,68.0,49.2,29.80,SE,135,4.0,8.0,51,0.00,,,0.00,VWS V14.00,2013-05-01 03:45:00,
2013-04-30 22:50:00,68.1,49.3,29.81,SE,135,5.0,9.0,51,0.00,,,0.00,VWS V14.00,2013-05-01 03:50:00,
2013-04-30 22:55:00,68.2,48.9,29.81,SE,135,5.0,9.0,50,0.00,,,0.00,VWS V14.00,2013-05-01 03:55:00,
2013-04-30 23:00:00,68.5,48.6,29.81,SE,135,5.0,10.0,49,0.00,,,0.00,VWS V14.00,2013-05-01 04:00:00,
2013-04-30 23:05:00,68.7,48.8,29.81,SE,135,4.0,8.0,49,0.00,,,0.00,VWS V14.00,2013-05-01 04:05:00,
2013-04-30 23:10:00,68.9,49.0,29.81,SE,135,5.0,8.0,49,0.00,,,0.00,VWS V14.00,2013-05-01 04:10:00,
2013-04-30 23:15:00,68.8,48.3,29.81,SE,135,4.0,7.0,48,0.00,,,0.00,VWS V14.00,2013-05-01 04:15:00,
2013-04-30 23:20:00,68.8,48.9,29.81,SE,135,5.0,9.0,49,0.00,,,0.00,VWS V14.00,2013-05-01 04:20:00,
2013-04-30 23:25:00,68.7,48.8,29.81,SE,135,5.0,9.0,49,0.00,,,0.00,VWS V14.00,2013-05-01 04:25:00,
2013-04-30 23:30:00,68.5,49.2,29.82,SE,135,4.0,9.0,50,0.00,,,0.00,VWS V14.00,2013-05-01 04:30:00,
2013-04-30 23:35:00,68.3,49.0,29.82,SE,135,4.0,9.0,50,0.00,,,0.00,VWS V14.00,2013-05-01 04:35:00,
2013-04-30 23:40:00,68.1,49.3,29.82,SE,135,4.0,8.0,51,0.00,,,0.00,VWS V14.00,2013-05-01 04:40:00,
2013-04-30 23:45:00,68.0,48.7,29.82,SE,135,5.0,10.0,50,0.00,,,0.00,VWS V14.00,2013-05-01 04:45:00,
2013-04-30 23:50:00,67.9,48.6,29.82,SE,135,5.0,9.0,50,0.00,,,0.00,VWS V14.00,2013-05-01 04:50:00,
2013-04-30 23:55:00,67.9,48.6,29.82,SE,135,5.0,10.0,50,0.00,,,0.00,VWS V14.00,2013-05-01 04:55:00,